Time,TemperatureF,DewpointF,PressureIn,WindDirection,WindDirectionDegrees,WindSpeedMPH,WindSpeedGustMPH,Humidity,HourlyPrecipIn,Conditions,Clouds,dailyrainin,SoftwareType,DateUTC
2013-02-03 00:03:00,26.0,11.0,-100.00,WSW,239,5.0,10.0,52,0.00,,,-99.99,,2013-02-03 05:03:00,
2013-02-03 00:12:00,26.0,11.0,-100.00,SW,229,4.0,9.0,51,0.00,,,-99.99,,2013-02-03 05:12:00,
2013-02-03 00:22:00,26.0,11.0,-100.00,WSW,239,4.0,7.0,51,0.00,,,-99.99,,2013-02-03 05:22:00,
2013-02-03 00:32:00,26.0,12.0,-100.00,WSW,244,4.0,7.0,54,0.00,,,-99.99,,2013-02-03 05:32:00,
2013-02-03 00:42:00,26.0,13.0,-100.00,West,278,4.0,7.0,58,0.00,,,-99.99,,2013-02-03 05:42:00,
2013-02-03 00:52:00,26.0,13.0,-100.00,WNW,292,4.0,9.0,58,0.00,,,-99.99,,2013-02-03 05:52:00,
2013-02-03 01:02:00,26.0,14.0,-100.00,WNW,284,4.0,9.0,60,0.00,,,-99.99,,2013-02-03 06:02:00,
2013-02-03 01:11:00,26.0,13.0,-100.00,West,263,3.0,7.0,59,0.00,,,-99.99,,2013-02-03 06:11:00,
2013-02-03 01:21:00,26.0,14.0,-100.00,WNW,282,4.0,9.0,61,0.00,,,-99.99,,2013-02-03 06:21:00,
2013-02-03 01:32:00,25.0,15.0,-100.00,West,277,4.0,7.0,66,0.00,,,-99.99,,2013-02-03 06:32:00,
2013-02-03 01:42:00,25.0,16.0,-100.00,West,267,3.0,6.0,69,0.00,,,-99.99,,2013-02-03 06:42:00,
2013-02-03 01:52:00,25.0,16.0,-100.00,West,265,2.0,6.0,71,0.00,,,-99.99,,2013-02-03 06:52:00,
2013-02-03 02:02:00,24.0,17.0,-100.00,NW,305,4.0,7.0,73,0.00,,,-99.99,,2013-02-03 07:02:00,
2013-02-03 02:11:00,24.0,17.0,-100.00,WNW,287,2.0,5.0,74,0.00,,,-99.99,,2013-02-03 07:11:00,
2013-02-03 02:21:00,24.0,18.0,-100.00,NW,308,4.0,6.0,77,0.00,,,-99.99,,2013-02-03 07:21:00,
2013-02-03 02:32:00,24.0,18.0,-100.00,NW,313,4.0,6.0,79,0.00,,,-99.99,,2013-02-03 07:32:00,
2013-02-03 02:42:00,23.0,18.0,-100.00,NW,309,2.0,4.0,81,0.00,,,-99.99,,2013-02-03 07:42:00,
2013-02-03 02:52:00,23.0,19.0,-100.00,NW,309,2.0,4.0,83,0.00,,,-99.99,,2013-02-03 07:52:00,
2013-02-03 03:02:00,23.0,19.0,-100.00,NW,312,3.0,5.0,86,0.00,,,-99.99,,2013-02-03 08:02:00,
2013-02-03 03:11:00,23.0,20.0,-100.00,NW,311,4.0,6.0,87,0.00,,,-99.99,,2013-02-03 08:11:00,
2013-02-03 03:22:00,23.0,20.0,-100.00,NW,309,2.0,4.0,88,0.00,,,-99.99,,2013-02-03 08:22:00,
2013-02-03 03:32:00,23.0,20.0,-100.00,NW,304,1.0,3.0,88,0.00,,,-99.99,,2013-02-03 08:32:00,
2013-02-03 03:41:00,23.0,20.0,-100.00,NW,316,1.0,2.0,88,0.01,,,-99.99,,2013-02-03 08:41:00,
2013-02-03 03:52:00,23.0,20.0,-100.00,NW,326,2.0,4.0,89,0.00,,,-99.99,,2013-02-03 08:52:00,
2013-02-03 04:03:00,23.0,20.0,-100.00,NNW,340,1.0,4.0,90,0.00,,,-99.99,,2013-02-03 09:03:00,
2013-02-03 04:11:00,23.0,20.0,-100.00,North,350,2.0,4.0,91,0.00,,,-99.99,,2013-02-03 09:11:00,
2013-02-03 04:21:00,23.0,20.0,-100.00,North,350,2.0,5.0,91,0.00,,,-99.99,,2013-02-03 09:21:00,
2013-02-03 04:32:00,23.0,20.0,-100.00,NNW,347,2.0,5.0,92,0.00,,,-99.99,,2013-02-03 09:32:00,
2013-02-03 04:42:00,23.0,21.0,-100.00,NNW,342,2.0,6.0,92,0.00,,,-99.99,,2013-02-03 09:42:00,
2013-02-03 04:51:00,22.0,20.0,-100.00,North,349,2.0,4.0,92,0.00,,,-99.99,,2013-02-03 09:51:00,
2013-02-03 05:01:00,22.0,20.0,-100.00,North,8,1.0,2.0,91,0.00,,,-99.99,,2013-02-03 10:01:00,
2013-02-03 05:11:00,22.0,20.0,-100.00,North,10,0.0,2.0,91,0.00,,,-99.99,,2013-02-03 10:11:00,
2013-02-03 05:21:00,22.0,20.0,-100.00,NNE,25,0.0,1.0,91,0.00,,,-99.99,,2013-02-03 10:21:00,
2013-02-03 05:32:00,22.0,20.0,-100.00,NNE,14,0.0,2.0,91,0.00,,,-99.99,,2013-02-03 10:32:00,
2013-02-03 05:42:00,22.0,20.0,-100.00,North,350,0.0,1.0,91,0.00,,,-99.99,,2013-02-03 10:42:00,
2013-02-03 05:52:00,21.0,19.0,-100.00,NNE,16,0.0,1.0,91,0.00,,,-99.99,,2013-02-03 10:52:00,
2013-02-03 06:02:00,21.0,19.0,-100.00,North,360,0.0,0.0,91,0.00,,,-99.99,,2013-02-03 11:02:00,
2013-02-03 06:11:00,21.0,19.0,-100.00,NNE,20,0.0,2.0,92,0.00,,,-99.99,,2013-02-03 11:11:00,
2013-02-03 06:22:00,21.0,19.0,-100.00,NNE,20,0.0,1.0,92,0.00,,,-99.99,,2013-02-03 11:22:00,
2013-02-03 06:32:00,21.0,19.0,-100.00,NNE,21,0.0,1.0,93,0.00,,,-99.99,,2013-02-03 11:32:00,
2013-02-03 06:42:00,21.0,19.0,-100.00,North,10,0.0,1.0,93,0.00,,,-99.99,,2013-02-03 11:42:00,
2013-02-03 06:52:00,21.0,20.0,-100.00,North,1,0.0,2.0,94,0.00,,,-99.99,,2013-02-03 11:52:00,
2013-02-03 07:02:00,22.0,20.0,-100.00,North,352,1.0,4.0,94,0.00,,,-99.99,,2013-02-03 12:02:00,
2013-02-03 07:11:00,22.0,21.0,-100.00,NNW,344,2.0,6.0,95,0.00,,,-99.99,,2013-02-03 12:11:00,
2013-02-03 07:22:00,22.0,21.0,-100.00,NNW,335,4.0,6.0,95,0.00,,,-99.99,,2013-02-03 12:22:00,
2013-02-03 07:32:00,22.0,21.0,-100.00,NNW,333,5.0,7.0,96,0.00,,,-99.99,,2013-02-03 12:32:00,
2013-02-03 07:42:00,22.0,21.0,-100.00,NNW,335,6.0,7.0,97,0.00,,,-99.99,,2013-02-03 12:42:00,
2013-02-03 07:53:00,22.0,22.0,-100.00,NNW,335,6.0,8.0,100,0.00,,,-99.99,,2013-02-03 12:53:00,
2013-02-03 08:03:00,22.0,22.0,-100.00,NNW,332,7.0,10.0,100,0.00,,,-99.99,,2013-02-03 13:03:00,
2013-02-03 08:11:00,21.0,20.0,-100.00,NNW,330,9.0,12.0,95,0.00,,,-99.99,,2013-02-03 13:11:00,
2013-02-03 08:21:00,21.0,20.0,-100.00,NNW,330,9.0,12.0,95,0.00,,,-99.99,,2013-02-03 13:21:00,
2013-02-03 08:32:00,21.0,19.0,-100.00,NW,325,9.0,12.0,89,0.00,,,-99.99,,2013-02-03 13:32:00,
2013-02-03 08:42:00,21.0,17.0,-100.00,NNW,329,8.0,10.0,86,0.00,,,-99.99,,2013-02-03 13:42:00,
2013-02-03 08:52:00,21.0,17.0,-100.00,NNW,333,6.0,9.0,85,0.00,,,-99.99,,2013-02-03 13:52:00,
2013-02-03 09:03:00,21.0,17.0,-100.00,NNW,333,5.0,9.0,83,0.00,,,-99.99,,2013-02-03 14:03:00,
2013-02-03 09:12:00,21.0,17.0,-100.00,NNW,339,5.0,9.0,84,0.00,,,-99.99,,2013-02-03 14:12:00,
2013-02-03 09:21:00,21.0,16.0,-100.00,NNW,328,6.0,9.0,81,0.00,,,-99.99,,2013-02-03 14:21:00,
2013-02-03 09:32:00,-999.0,-99.9,-100.00,NNW,332,9.0,13.0,-999,-99.99,,,-99.99,,2013-02-03 14:32:00,
2013-02-03 09:42:00,22.0,15.0,-100.00,NNW,330,9.0,14.0,75,0.00,,,-99.99,,2013-02-03 14:42:00,
2013-02-03 09:52:00,22.0,15.0,-100.00,NNW,332,10.0,13.0,76,0.00,,,-99.99,,2013-02-03 14:52:00,
2013-02-03 10:03:00,22.0,16.0,-100.00,NNW,329,9.0,12.0,76,0.00,,,-99.99,,2013-02-03 15:03:00,
2013-02-03 10:11:00,22.0,15.0,-100.00,NNW,330,8.0,12.0,73,0.00,,,-99.99,,2013-02-03 15:11:00,
2013-02-03 10:22:00,23.0,16.0,-100.00,NNW,333,8.0,14.0,73,0.00,,,-99.99,,2013-02-03 15:22:00,
2013-02-03 10:33:00,23.0,16.0,-100.00,NNW,336,7.0,11.0,73,0.00,,,-99.99,,2013-02-03 15:33:00,
2013-02-03 10:42:00,24.0,16.0,-100.00,NNW,335,9.0,14.0,72,0.00,,,-99.99,,2013-02-03 15:42:00,
2013-02-03 10:51:00,24.0,16.0,-100.00,NNW,333,10.0,14.0,72,0.00,,,-99.99,,2013-02-03 15:51:00,
2013-02-03 11:03:00,24.0,15.0,-100.00,NNW,333,10.0,14.0,68,0.00,,,-99.99,,2013-02-03 16:03:00,
2013-02-03 11:11:00,25.0,16.0,-100.00,NNW,333,9.0,15.0,70,0.00,,,-99.99,,2013-02-03 16:11:00,
2013-02-03 11:22:00,25.0,17.0,-100.00,NNW,335,12.0,16.0,71,0.00,,,-99.99,,2013-02-03 16:22:00,
2013-02-03 11:33:00,25.0,17.0,-100.00,NNW,333,11.0,16.0,68,0.00,,,-99.99,,2013-02-03 16:33:00,
2013-02-03 11:42:00,26.0,16.0,-100.00,NNW,332,11.0,15.0,66,0.00,,,-99.99,,2013-02-03 16:42:00,
2013-02-03 11:52:00,26.0,15.0,-100.00,NNW,335,11.0,17.0,62,0.00,,,-99.99,,2013-02-03 16:52:00,
2013-02-03 12:02:00,26.0,15.0,-100.00,NNW,336,10.0,16.0,64,0.00,,,-99.99,,2013-02-03 17:02:00,
2013-02-03 12:11:00,26.0,16.0,-100.00,NNW,340,7.0,14.0,65,0.00,,,-99.99,,2013-02-03 17:11:00,
2013-02-03 12:22:00,26.0,15.0,-100.00,NNW,332,11.0,20.0,61,0.00,,,-99.99,,2013-02-03 17:22:00,
2013-02-03 12:32:00,26.0,17.0,-100.00,NNW,329,11.0,17.0,67,0.00,,,-99.99,,2013-02-03 17:32:00,
2013-02-03 12:42:00,26.0,16.0,-100.00,NNW,328,13.0,17.0,66,0.00,,,-99.99,,2013-02-03 17:42:00,
2013-02-03 12:53:00,-999.0,-99.9,-100.00,NNW,330,10.0,17.0,-999,-99.99,,,-99.99,,2013-02-03 17:53:00,
2013-02-03 13:03:00,26.0,16.0,-100.00,NNW,337,9.0,14.0,64,0.00,,,-99.99,,2013-02-03 18:03:00,
2013-02-03 13:12:00,26.0,18.0,-100.00,NNW,328,11.0,14.0,69,0.00,,,-99.99,,2013-02-03 18:12:00,
2013-02-03 13:23:00,26.0,17.0,-100.00,NNW,329,12.0,16.0,67,0.00,,,-99.99,,2013-02-03 18:23:00,
2013-02-03 13:33:00,26.0,18.0,-100.00,NNW,333,9.0,14.0,71,0.00,,,-99.99,,2013-02-03 18:33:00,
2013-02-03 13:42:00,26.0,17.0,-100.00,NNW,332,11.0,15.0,66,0.00,,,-99.99,,2013-02-03 18:42:00,
2013-02-03 13:51:00,26.0,17.0,-100.00,NNW,330,9.0,14.0,68,0.00,,,-99.99,,2013-02-03 18:51:00,
2013-02-03 14:02:00,26.0,17.0,-100.00,NNW,330,11.0,14.0,67,0.00,,,-99.99,,2013-02-03 19:02:00,
2013-02-03 14:11:00,-999.0,-99.9,-100.00,NNW,333,11.0,16.0,-999,-99.99,,,-99.99,,2013-02-03 19:11:00,
2013-02-03 14:22:00,26.0,17.0,-100.00,NNW,339,9.0,12.0,68,0.00,,,-99.99,,2013-02-03 19:22:00,
2013-02-03 14:32:00,26.0,17.0,-100.00,NNW,329,9.0,15.0,68,0.00,,,-99.99,,2013-02-03 19:32:00,
2013-02-03 14:42:00,26.0,18.0,-100.00,NNW,332,7.0,11.0,71,0.00,,,-99.99,,2013-02-03 19:42:00,
2013-02-03 14:51:00,26.0,18.0,-100.00,NNW,328,9.0,13.0,71,0.00,,,-99.99,,2013-02-03 19:51:00,
2013-02-03 15:01:00,26.0,18.0,-100.00,NNW,330,9.0,12.0,72,0.00,,,-99.99,,2013-02-03 20:01:00,
2013-02-03 15:12:00,26.0,18.0,-100.00,NNW,332,8.0,12.0,72,0.00,,,-99.99,,2013-02-03 20:12:00,
2013-02-03 15:21:00,26.0,19.0,-100.00,NNW,330,9.0,13.0,74,0.00,,,-99.99,,2013-02-03 20:21:00,
2013-02-03 15:33:00,26.0,17.0,-100.00,NNW,332,9.0,12.0,69,0.00,,,-99.99,,2013-02-03 20:33:00,
2013-02-03 15:42:00,26.0,17.0,-100.00,NNW,336,7.0,11.0,69,0.00,,,-99.99,,2013-02-03 20:42:00,
2013-02-03 15:52:00,26.0,18.0,-100.00,NNW,330,9.0,12.0,69,0.00,,,-99.99,,2013-02-03 20:52:00,
2013-02-03 16:03:00,26.0,18.0,-100.00,NNW,330,9.0,12.0,69,0.00,,,-99.99,,2013-02-03 21:03:00,
2013-02-03 16:11:00,26.0,17.0,-100.00,NNW,328,7.0,10.0,68,0.00,,,-99.99,,2013-02-03 21:11:00,
2013-02-03 16:21:00,26.0,17.0,-100.00,NNW,342,5.0,10.0,67,0.00,,,-99.99,,2013-02-03 21:21:00,
2013-02-03 16:33:00,26.0,16.0,-100.00,NNW,342,6.0,11.0,65,0.00,,,-99.99,,2013-02-03 21:33:00,
2013-02-03 16:42:00,26.0,15.0,-100.00,NNW,340,6.0,9.0,63,0.00,,,-99.99,,2013-02-03 21:42:00,
2013-02-03 16:51:00,26.0,16.0,-100.00,NNW,340,4.0,7.0,63,0.00,,,-99.99,,2013-02-03 21:51:00,
2013-02-03 17:02:00,26.0,15.0,-100.00,NNW,343,5.0,9.0,62,0.00,,,-99.99,,2013-02-03 22:02:00,
2013-02-03 17:11:00,26.0,14.0,-100.00,NNW,343,4.0,7.0,60,0.00,,,-99.99,,2013-02-03 22:11:00,
2013-02-03 17:21:00,26.0,14.0,-100.00,North,350,4.0,8.0,60,0.00,,,-99.99,,2013-02-03 22:21:00,
2013-02-03 17:32:00,27.0,15.0,-100.00,NNW,343,6.0,9.0,60,0.00,,,-99.99,,2013-02-03 22:32:00,
2013-02-03 17:42:00,26.0,15.0,-100.00,NNW,346,4.0,7.0,61,0.00,,,-99.99,,2013-02-03 22:42:00,
2013-02-03 17:51:00,27.0,14.0,-100.00,NNW,339,6.0,10.0,59,0.00,,,-99.99,,2013-02-03 22:51:00,
2013-02-03 18:01:00,27.0,14.0,-100.00,NNW,339,4.0,9.0,59,0.00,,,-99.99,,2013-02-03 23:01:00,
2013-02-03 18:12:00,-999.0,-99.9,-100.00,NNW,340,4.0,10.0,-999,-99.99,,,-99.99,,2013-02-03 23:12:00,
2013-02-03 18:22:00,26.0,13.0,-100.00,NNW,342,4.0,9.0,55,0.00,,,-99.99,,2013-02-03 23:22:00,
2013-02-03 18:32:00,27.0,13.0,-100.00,North,350,5.0,10.0,55,0.00,,,-99.99,,2013-02-03 23:32:00,
2013-02-03 18:42:00,27.0,13.0,-100.00,NNW,335,6.0,11.0,57,0.00,,,-99.99,,2013-02-03 23:42:00,
2013-02-03 18:52:00,27.0,13.0,-100.00,NNW,342,4.0,9.0,57,0.00,,,-99.99,,2013-02-03 23:52:00,
2013-02-03 19:02:00,26.0,13.0,-100.00,NE,47,1.0,3.0,56,0.00,,,-99.99,,2013-02-04 00:02:00,
2013-02-03 19:11:00,26.0,12.0,-100.00,North,352,1.0,4.0,55,0.00,,,-99.99,,2013-02-04 00:11:00,
2013-02-03 19:22:00,26.0,12.0,-100.00,North,354,2.0,5.0,55,0.00,,,-99.99,,2013-02-04 00:22:00,
2013-02-03 19:32:00,26.0,13.0,-100.00,North,352,1.0,4.0,57,0.00,,,-99.99,,2013-02-04 00:32:00,
2013-02-03 19:42:00,26.0,13.0,-100.00,NNW,342,1.0,3.0,56,0.00,,,-99.99,,2013-02-04 00:42:00,
2013-02-03 19:51:00,26.0,13.0,-100.00,North,1,1.0,3.0,56,0.00,,,-99.99,,2013-02-04 00:51:00,
2013-02-03 20:01:00,26.0,13.0,-100.00,NNW,332,3.0,5.0,57,0.00,,,-99.99,,2013-02-04 01:01:00,
2013-02-03 20:11:00,27.0,13.0,-100.00,NNW,335,4.0,7.0,55,0.00,,,-99.99,,2013-02-04 01:11:00,
2013-02-03 20:21:00,27.0,13.0,-100.00,NNW,335,6.0,9.0,57,0.00,,,-99.99,,2013-02-04 01:21:00,
2013-02-03 20:32:00,27.0,14.0,-100.00,NNW,333,7.0,10.0,59,0.00,,,-99.99,,2013-02-04 01:32:00,
2013-02-03 20:41:00,27.0,15.0,-100.00,NNW,328,6.0,9.0,59,0.00,,,-99.99,,2013-02-04 01:41:00,
2013-02-03 20:52:00,27.0,16.0,-100.00,NNW,328,7.0,11.0,63,0.00,,,-99.99,,2013-02-04 01:52:00,
2013-02-03 21:02:00,27.0,15.0,-100.00,NW,318,7.0,11.0,62,0.00,,,-99.99,,2013-02-04 02:02:00,
2013-02-03 21:11:00,27.0,15.0,-100.00,NW,319,7.0,9.0,62,0.00,,,-99.99,,2013-02-04 02:11:00,
2013-02-03 21:21:00,27.0,17.0,-100.00,NW,325,8.0,11.0,65,0.00,,,-99.99,,2013-02-04 02:21:00,
2013-02-03 21:32:00,27.0,14.0,-100.00,NNW,329,9.0,12.0,58,0.00,,,-99.99,,2013-02-04 02:32:00,
2013-02-03 21:41:00,26.0,14.0,-100.00,NW,320,9.0,11.0,58,0.00,,,-99.99,,2013-02-04 02:41:00,
2013-02-03 21:52:00,26.0,14.0,-100.00,NW,308,7.0,9.0,59,0.00,,,-99.99,,2013-02-04 02:52:00,
2013-02-03 22:02:00,26.0,14.0,-100.00,NW,311,6.0,8.0,59,-99.99,,,-99.99,,2013-02-04 03:02:00,
2013-02-03 22:11:00,26.0,14.0,-100.00,NW,312,6.0,9.0,59,0.00,,,-99.99,,2013-02-04 03:11:00,
2013-02-03 22:21:00,26.0,13.0,-100.00,WNW,295,6.0,7.0,58,0.00,,,-99.99,,2013-02-04 03:21:00,
2013-02-03 22:32:00,26.0,14.0,-100.00,WNW,299,5.0,9.0,60,0.00,,,-99.99,,2013-02-04 03:32:00,
2013-02-03 22:42:00,26.0,13.0,-100.00,NW,304,6.0,9.0,58,0.00,,,-99.99,,2013-02-04 03:42:00,
2013-02-03 22:51:00,26.0,13.0,-100.00,WNW,295,5.0,8.0,59,0.00,,,-99.99,,2013-02-04 03:51:00,
2013-02-03 23:01:00,26.0,13.0,-100.00,WNW,296,6.0,9.0,58,0.00,,,-99.99,,2013-02-04 04:01:00,
2013-02-03 23:11:00,26.0,14.0,-100.00,WNW,298,6.0,8.0,61,0.00,,,-99.99,,2013-02-04 04:11:00,
2013-02-03 23:21:00,26.0,14.0,-100.00,WNW,298,6.0,8.0,61,0.00,,,-99.99,,2013-02-04 04:21:00,
2013-02-03 23:32:00,26.0,14.0,-100.00,WNW,299,4.0,7.0,61,0.00,,,-99.99,,2013-02-04 04:32:00,
2013-02-03 23:42:00,26.0,13.0,-100.00,WNW,302,4.0,6.0,59,0.00,,,-99.99,,2013-02-04 04:42:00,
2013-02-03 23:52:00,-999.0,-99.9,-100.00,WNW,298,4.0,6.0,-999,-99.99,,,-99.99,,2013-02-04 04:52:00,